Location: Devore Heights
(34.2372°N, 117.4156°W)
Time: 18:46:20
(UTC+00:00)

S-56A Canister/Altair - Pass Details

Date: 21 September 2024
Orbit: 636 x 2487 km, 38.9° (Epoch: 14 October)

Event Time Altitude Azimuth Distance (km) Brightness Sun altitude
Rises 08:43:46 0° 271° (W) 4,644 - -52.5°
Reaches altitude 10° 08:48:46 10° 248° (WSW) 4,052 - -52.0°
Maximum altitude 08:53:40 14° 221° (SW) 4,065 - -51.5°
Drops below altitude 10° 08:59:15 10° 195° (SSW) 4,705 - -50.9°
Sets 09:06:13 0° 174° (S) 5,991 - -50.2°
